CW8081 Weather Reports


time (UTC)temp
F
wind
direction
speed
knots
gust
knots
rain 1hr
in
rain 24hr
in
rain mn
in
humidity
%
barometer
mb
20260902161606 86 0 0.0 0.0 0.00 0.04 0.04 61 1013.6
20260902153604 88 0 0.0 0.0 0.00 0.04 0.04 61 1013.6
20260902153104 88 357 0.0 0.0 0.00 0.04 0.04 60 1013.0
20260902151604 89 0 0.0 0.0 0.00 0.04 0.04 57 1013.0
20260902150604 90 0 0.0 0.0 0.00 0.04 0.04 57 1013.3
20260902144105 91 0 0.0 0.0 0.00 0.04 0.04 54 1013.3
20260902143104 91 0 0.0 0.0 0.00 0.04 0.04 56 1013.3
20260902141604 92 0 0.0 0.0 0.00 0.04 0.04 52 1013.3
20260902140604 92 0 0.0 0.0 0.00 0.04 0.04 50 1013.7
20260902134604 94 0 0.0 0.0 0.00 0.04 0.04 47 1013.7
20260902133604 94 0 0.0 0.0 0.00 0.04 0.04 47 1013.9
20260902131604 95 0 0.0 0.0 0.00 0.04 0.04 45 1015.6
20260902131104 95 0 0.0 0.0 0.00 0.04 0.04 44 1015.6
20260902124604 94 359 0.0 0.0 0.00 0.04 0.04 46 1015.6
20260902124104 94 0 0.0 0.0 0.00 0.04 0.04 46 1015.6
20260902121104 92 359 0.0 0.0 0.00 0.04 0.04 55 1015.6
20260902120104 91 356 0.0 0.0 0.00 0.04 0.04 60 1015.6
20260902114104 91 0 0.0 0.0 0.00 0.04 0.04 60 1015.6
20260902113604 91 354 0.0 0.0 0.00 0.04 0.04 61 1015.6
20260902111604 90 354 0.0 0.0 0.00 0.04 0.04 60 1015.6
20260902110105 90 0 0.0 0.0 0.00 0.04 0.04 59 1016.4
20260902104604 89 352 0.0 0.0 0.00 0.04 0.04 59 1016.4
20260902103604 89 336 0.0 0.0 0.00 0.04 0.04 58 1016.4
20260902101604 89 356 0.0 0.0 0.00 0.04 0.04 61 1016.4
20260902101104 89 357 0.0 0.0 0.00 0.04 0.04 62 1016.4
20260902094604 88 0 0.0 0.0 0.00 0.04 0.04 61 1016.4
20260902094104 88 0 0.0 0.0 0.00 0.04 0.04 62 1016.4
20260902093604 87 321 0.0 0.0 0.00 0.04 0.04 64 1016.4
20260902090604 87 355 0.0 0.0 0.00 0.04 0.04 66 1016.5
20260902084604 85 0 0.0 0.0 0.00 0.04 0.04 69 1016.5
20260902084104 85 0 0.0 0.0 0.00 0.04 0.04 71 1016.5
20260902081604 84 0 0.0 0.0 0.00 0.04 0.04 72 1016.5
20260902074604 82 0 0.0 0.0 0.00 0.04 0.04 76 1016.5
20260902074104 82 0 0.0 0.0 0.00 0.04 0.04 76 1016.5
20260902064104 79 38 0.0 0.0 0.00 0.04 0.04 82 1016.3
20260902054604 77 32 0.0 0.0 0.01 0.04 0.04 85 1016.2
20260902054104 77 30 0.0 0.0 0.01 0.04 0.04 85 1016.2
20260902053604 77 30 0.0 0.0 0.00 0.03 0.03 85 1016.4
20260902053104 76 30 0.0 0.0 0.00 0.03 0.03 86 1016.4
20260902051104 76 30 0.0 0.0 0.00 0.03 0.03 85 1015.9
20260902044104 75 42 0.0 0.0 0.01 0.03 0.03 85 1015.9
20260902043104 75 27 0.0 0.0 0.01 0.03 0.03 85 1015.9
20260902040104 75 63 0.0 0.0 0.00 0.02 0.02 85 1015.8
20260902034604 75 63 0.0 0.0 0.00 0.02 0.02 84 1015.7
20260902034104 75 64 0.0 0.0 0.00 0.02 0.02 83 1015.6
20260902031604 75 0 0.0 0.0 0.01 0.02 0.02 82 1015.5
20260902030605 76 13 0.0 0.0 0.01 0.02 0.02 82 1015.5
20260902030105 76 0 0.0 0.0 0.02 0.02 0.02 81 1015.5
20260902023604 76 0 0.0 0.0 0.02 0.02 0.02 80 1015.5
20260902021604 77 0 0.0 0.0 0.02 0.02 0.02 78 1015.5
20260902020604 77 0 0.0 0.0 0.02 0.02 0.02 77 1015.5
20260902020105 78 0 0.0 0.0 0.01 0.01 0.01 77 1015.5
20260902011104 80 28 0.0 0.0 0.00 0.00 0.00 74 1015.4
20260902010604 80 24 0.0 0.0 0.00 0.00 0.00 74 1015.4
20260902004604 80 346 0.0 0.0 0.00 0.00 0.00 78 1015.4
20260902003604 80 0 0.0 0.0 0.00 0.00 0.00 79 1015.4
20260902001604 80 0 0.0 0.0 0.00 0.00 0.00 77 1015.0
20260902001104 80 298 0.0 0.0 0.00 0.00 0.00 76 1015.0
20260902000604 80 0 0.0 0.0 0.00 0.00 0.00 76 1015.0
20260902000105 80 0 0.0 0.0 0.00 0.00 0.00 76 1015.0
20260901234604 80 0 0.0 0.0 0.00 0.00 0.00 76 1015.0
20260901231605 80 355 0.0 0.0 0.00 0.00 0.00 77 1015.0
20260901230604 80 337 0.0 0.0 0.00 0.00 0.00 77 1015.0
20260901224604 79 0 0.0 0.0 0.00 0.00 0.00 75 1014.9
20260901223104 79 0 0.0 0.0 0.00 0.00 0.00 74 1015.0
20260901221104 79 0 0.0 0.0 0.00 0.00 0.00 74 1015.0
20260901220604 79 0 0.0 0.0 0.00 0.00 0.00 74 1015.0
20260901214603 79 0 0.0 0.0 0.00 0.00 0.00 73 1014.6
20260901213604 79 0 0.0 0.0 0.00 0.00 0.00 73 1014.6
20260901213104 80 0 0.0 0.0 0.00 0.00 0.00 73 1014.6
20260901211105 80 0 0.0 0.0 0.00 0.00 0.00 72 1014.6
20260901203604 80 0 0.0 0.0 0.00 0.00 0.00 73 1014.6
20260901203104 80 0 0.0 0.0 0.00 0.00 0.00 73 1014.7
20260901201104 81 0 0.0 0.0 0.00 0.00 0.00 72 1014.5
20260901200604 81 0 0.0 0.0 0.00 0.00 0.00 72 1014.5
20260901194603 81 0 0.0 0.0 0.00 0.00 0.00 71 1014.5
20260901194104 81 0 0.0 0.0 0.00 0.00 0.00 71 1014.5
20260901190105 82 0 0.0 0.0 0.00 0.00 0.00 70 1014.3
20260901184104 82 0 0.0 0.0 0.00 0.00 0.00 69 1013.8
20260901181104 83 0 0.0 0.0 0.00 0.00 0.00 69 1013.4
20260901180604 83 0 0.0 0.0 0.00 0.00 0.00 69 1013.1
20260901180105 83 0 0.0 0.0 0.00 0.00 0.00 69 1013.1
20260901173104 84 0 0.0 0.0 0.00 0.00 0.00 66 1012.9
20260901171604 84 0 0.0 0.0 0.00 0.00 0.00 66 1012.9
20260901170604 85 0 0.0 0.0 0.00 0.00 0.00 64 1012.9
20260901163604 86 0 0.0 0.0 0.00 0.00 0.00 63 1012.9
20260901163104 86 0 0.0 0.0 0.00 0.00 0.00 63 1012.9